Location: Pinon Hills
(34.4429°N, 117.6403°W)
Time: 21:28:58
(UTC-07:00)

Uosat F - Visible Passes

Search period start: 01 August 2014 00:00
Search period end: 11 August 2014 00:00
Orbit: 752 x 762 km, 98.7° (Epoch: 31 July)

Date Brightness Start Highest point End Pass type
(mag) Time Alt. Az. Time Alt. Az. Time Alt. Az.
01 Aug 11.2 05:07:02 10° NNE 05:12:04 82° ESE 05:17:03 10° S visible
02 Aug 12.7 04:28:27 10° NE 04:32:53 31° E 04:37:17 10° SSE visible
03 Aug 13.8 03:51:39 10° ENE 03:53:29 12° E 03:55:19 10° ESE visible
03 Aug 11.2 05:27:41 10° N 05:32:37 62° WNW 05:37:32 10° SSW visible
04 Aug 11.9 04:48:40 10° NNE 04:53:33 51° E 04:58:23 10° S visible
05 Aug 13.4 04:10:37 10° NE 04:14:16 20° E 04:17:53 10° SE visible
06 Aug 11.1 05:09:08 10° NNE 05:14:09 85° ESE 05:19:09 10° SSW visible
07 Aug 12.7 04:30:30 10° NE 04:34:59 32° E 04:39:25 10° SSE visible
08 Aug 13.8 03:53:33 10° ENE 03:55:36 12° E 03:57:38 10° ESE visible
08 Aug 11.2 05:29:47 10° N 05:34:42 59° WNW 05:39:36 10° SSW visible
09 Aug 11.8 04:50:45 10° NNE 04:55:38 53° E 05:00:30 10° S visible
10 Aug 13.3 04:12:39 10° NE 04:16:22 21° E 04:20:03 10° SE visible
